This demonstration page uses our WeatherBlox Daily Observations layout. Learn more.

Hourly Observations for March 12, 2016

Temp ( °F °C ) Dew Point ( °F °C ) Humidity (%) Winds ( mph kmh ) Pressure ( in mb ) Visibility ( mi km ) Precip ( " mm )
12:15 am 00:15 Clear 45 7.2 30 -1.1 56 56 SSE 10 17 30.09 1019 10 16.0934 0 0
12:35 am 00:35 Clear 45 7 30 -1 57 57 SSE 9 15 30.09 1019 10 16.0934 0 0
12:55 am 00:55 Clear 45 7 30 -1 57 57 SSE 7 11 30.06 1018 10 16.0934 0 0
1:15 am 01:15 Clear 44 6.5 30 -1.3 58 58 SSE 6 9 30.06 1018 10 16.0934 0 0
1:35 am 01:35 Clear 39 3.9 28 -2.1 65 65 SSE 6 9 30.09 1019 10 16.0934 0 0
1:55 am 01:55 Clear 38 3.5 29 -1.8 69 69 SSE 7 11 30.09 1019 10 16.0934 0 0
2:15 am 02:15 Clear 37 3 28 -2.5 67 67 SSE 5 7 30.09 1019 10 16.0934 0 0
2:35 am 02:35 Clear 37 2.7 28 -2.1 71 71 SSE 6 9 30.09 1019 10 16.0934 0 0
2:55 am 02:55 Clear 38 3.2 28 -2.1 69 69 SSE 6 9 30.06 1018 10 16.0934 0 0
3:15 am 03:15 Clear 38 3.3 28 -2.2 68 68 SSE 5 7 30.06 1018 10 16.0934 0 0
3:35 am 03:35 Clear 37 2.5 28 -2.5 70 70 SSE 5 7 30.03 1017 10 16.0934 0 0
3:55 am 03:55 Clear 36 2.3 28 -2.4 71 71 SSE 5 7 30.06 1018 10 16.0934 0 0
4:15 am 04:15 Clear 35 1.7 27 -2.9 72 72 Calm 30.06 1018 10 16.0934 0 0
4:35 am 04:35 Clear 35 1.5 28 -2.2 77 77 SSE 6 9 30.06 1018 10 16.0934 0 0
4:55 am 04:55 Clear 36 2.3 29 -1.9 74 74 SSE 7 11 30.06 1018 10 16.0934 0 0
5:15 am 05:15 Clear 35 1.9 29 -1.6 78 78 SSE 7 11 30.06 1018 10 16.0934 0 0
5:35 am 05:35 Clear 35 1.5 28 -2 78 78 Calm 30.03 1017 10 16.0934 0 0
5:55 am 05:55 Clear 33 0.8 28 -2.5 79 79 SSE 5 7 30.03 1017 10 16.0934 0 0
6:15 am 06:15 Clear 35 1.4 29 -1.6 81 81 S 5 7 30.03 1017 10 16.0934 0 0
6:35 am 06:35 Clear 33 0.3 27 -2.8 80 80 SSE 7 11 30.03 1017 10 16.0934 0 0
6:55 am 06:55 Sunny 33 0.6 29 -1.8 84 84 Calm 30.03 1017 10 16.0934 0 0
7:15 am 07:15 Sunny 32 0 27 -2.6 83 83 Calm 30.03 1017 10 16.0934 0 0
7:35 am 07:35 Sunny 33 0.5 28 -2.1 83 83 Calm 30.03 1017 10 16.0934 0 0
7:55 am 07:55 Sunny 35 1.6 31 -0.5 86 86 Calm 30.03 1017 10 16.0934 0 0
8:15 am 08:15 Sunny 39 3.8 33 0.6 80 80 SE 5 7 30 1016 10 16.0934 0 0
8:35 am 08:35 Sunny 42 5.7 33 0.8 71 71 SE 6 9 29.97 1015 10 16.0934 0 0
8:55 am 08:55 Sunny 46 7.8 35 1.7 66 66 SSE 7 11 29.97 1015 10 16.0934 0 0
9:15 am 09:15 Sunny 48 9 36 2.1 62 62 SSE 10 17 29.94 1014 10 16.0934 0 0
9:35 am 09:35 Sunny 51 10.4 38 3.1 61 61 SSE 9 15 29.94 1014 10 16.0934 0 0
9:55 am 09:55 Sunny 53 11.5 40 4.6 63 63 S 12 19 29.94 1014 10 16.0934 0 0
10:15 am 10:15 Sunny 54 12.1 41 4.9 62 62 S 13 20 29.91 1013 10 16.0934 0 0
10:35 am 10:35 Sunny 55 12.6 40 4.7 59 59 SSE 10 17 29.88 1012 10 16.0934 0 0
10:55 am 10:55 Mostly Cloudy 55 13 40 4.7 57 57 S 10 17 29.88 1012 10 16.0934 0 0
11:15 am 11:15 Cloudy 55 13 41 4.8 58 58 SSE 12 19 29.88 1012 10 16.0934 0 0
11:35 am 11:35 Cloudy 55 13 41 5.2 59 59 SSE 12 19 29.85 1011 10 16.0934 0 0
11:55 am 11:55 Cloudy 56 13.4 42 5.4 59 59 SSE 10 17 29.85 1011 10 16.0934 0 0
12:15 pm 12:15 Cloudy 56 13.3 41 5.2 58 58 SSE 10 17 29.85 1011 10 16.0934 0 0
12:35 pm 12:35 Cloudy 56 13.5 41 5.2 57 57 SSE 9 15 29.85 1011 10 16.0934 0 0
1:15 pm 13:15 Cloudy 56 13.3 42 5.7 60 60 SSE 12 19 29.83 1010 10 16.0934 0 0
1:35 pm 13:35 Cloudy 56 13.5 43 6 61 61 SSE 8 13 29.8 1009 10 16.0934 0 0
1:55 pm 13:55 Cloudy 56 13.5 43 6.1 61 61 SE 8 13 29.8 1009 10 16.0934 0 0
2:15 pm 14:15 Cloudy 56 13.5 44 6.6 63 63 SE 10 17 29.77 1008 10 16.0934 0 0
2:35 pm 14:35 Cloudy 56 13.6 45 7.3 66 66 SE 12 19 29.77 1008 10 16.0934 0 0
2:55 pm 14:55 Cloudy 56 13.5 45 7.3 66 66 SSE 13 20 29.77 1008 10 16.0934 0 0
3:15 pm 15:15 Mostly Cloudy 57 13.9 45 7.3 65 65 SE 15 24 29.74 1007 10 16.0934 0 0
3:35 pm 15:35 Cloudy 56 13.6 45 7.4 66 66 SE 13 20 29.77 1008 10 16.0934 0 0
3:55 pm 15:55 Cloudy 57 14.1 46 7.5 65 65 SE 16 26 29.74 1007 10 16.0934 0 0
4:15 pm 16:15 Cloudy 57 14.1 46 7.7 66 66 SE 14 22 29.74 1007 10 16.0934 0 0
4:35 pm 16:35 Cloudy 58 14.2 47 8.2 67 67 SE 17 28 29.74 1007 10 16.0934 0 0
4:55 pm 16:55 Cloudy 56 13.5 47 8.5 72 72 SE 17 28 29.77 1008 10 16.0934 0 0
5:15 pm 17:15 Cloudy 55 12.7 47 8.6 76 76 SE 14 22 29.77 1008 10 16.0934 0 0
5:35 pm 17:35 Cloudy 55 12.6 48 9 79 79 SE 14 22 29.74 1007 10 16.0934 0 0
5:55 pm 17:55 Cloudy 55 12.5 49 9.3 81 81 SSE 10 17 29.77 1008 10 16.0934 0 0
6:15 pm 18:15 Cloudy 54 12.3 49 9.5 83 83 SE 10 17 29.77 1008 10 16.0934 0 0
6:35 pm 18:35 Cloudy 54 12.2 49 9.6 84 84 SE 13 20 29.77 1008 10 16.0934 0 0
6:55 pm 18:55 Cloudy 54 12.1 49 9.7 85 85 SE 12 19 29.77 1008 10 16.0934 0 0
7:15 pm 19:15 Cloudy 53 11.9 49 9.7 87 87 SE 12 19 29.77 1008 10 16.0934 0 0
7:35 pm 19:35 Cloudy 53 11.7 50 10 89 89 SE 14 22 29.77 1008 10 16.0934 0 0
8:15 pm 20:15 Cloudy 53 11.6 51 10.3 92 92 SE 15 24 29.77 1008 10 16.0934 0 0
8:35 pm 20:35 Cloudy 53 11.5 51 10.4 93 93 SE 12 19 29.77 1008 7 11.26538 0 0
8:55 pm 20:55 Cloudy with Mist and Fog 53 11.5 51 10.5 94 94 SE 12 19 29.77 1008 4 6.43736 0 0
9:15 pm 21:15 Cloudy with Mist and Fog 53 11.5 51 10.6 94 94 SE 13 20 29.77 1008 1.5 2.41401 0 0
9:35 pm 21:35 Cloudy with Mist and Fog 52 11.3 51 10.6 96 96 SE 12 19 29.77 1008 1 1.60934 0 0
9:55 pm 21:55 Cloudy with Mist and Fog 52 11.3 51 10.7 96 96 SE 12 19 29.77 1008 1.25 2.011675 0 0
10:15 pm 22:15 Cloudy with Mist and Fog 53 11.5 52 11 97 97 SE 12 19 29.77 1008 5 8.0467 0 0
10:35 pm 22:35 Cloudy with Mist and Fog 53 11.7 51 10.8 94 94 SE 12 19 29.77 1008 5 8.0467 0 0
10:55 pm 22:55 Cloudy 53 11.8 51 10.7 93 93 SSE 9 15 29.77 1008 7 11.26538 0 0
11:15 pm 23:15 Cloudy 54 12 51 10.7 92 92 SSE 10 17 29.77 1008 7 11.26538 0 0
11:35 pm 23:35 Cloudy 54 12 51 10.6 91 91 SSE 10 17 29.77 1008 7 11.26538 0 0
11:55 pm 23:55 Cloudy 54 12 51 10.6 91 91 SSE 9 15 29.77 1008 7 11.26538 0 0

Powered by AerisWeather